TimeHST,TemperatureF,Dew PointF,Humidity,Sea Level PressureIn,VisibilityMPH,Wind Direction,Wind SpeedMPH,Gust SpeedMPH,PrecipitationIn,Events,Conditions,WindDirDegrees,DateUTC
12:56 AM,70.0,69.1,97,29.99,10.0,Calm,Calm,-,N/A,,Clear,0,2013-01-09 10:56:00
1:56 AM,69.1,64.0,84,29.97,10.0,East,3.5,-,N/A,,Partly Cloudy,80,2013-01-09 11:56:00
2:56 AM,70.0,64.9,84,29.96,10.0,ESE,3.5,-,N/A,,Scattered Clouds,120,2013-01-09 12:56:00
3:56 AM,66.9,66.0,97,29.95,10.0,Calm,Calm,-,N/A,,Clear,0,2013-01-09 13:56:00
4:56 AM,68.0,68.0,100,29.95,10.0,Calm,Calm,-,N/A,,Clear,0,2013-01-09 14:56:00
5:56 AM,66.9,61.0,81,29.95,10.0,Calm,Calm,-,N/A,,Clear,0,2013-01-09 15:56:00
6:56 AM,66.0,66.0,100,29.97,10.0,East,3.5,-,N/A,,Clear,80,2013-01-09 16:56:00
7:56 AM,69.1,64.9,87,29.98,10.0,Calm,Calm,-,N/A,,Clear,0,2013-01-09 17:56:00
8:56 AM,77.0,70.0,79,29.99,10.0,Calm,Calm,-,N/A,,Clear,0,2013-01-09 18:56:00
9:14 AM,77.0,73.4,89,29.98,10.0,Variable,3.5,-,N/A,,Partly Cloudy,0,2013-01-09 19:14:00
9:56 AM,78.1,71.1,79,30.00,10.0,NNW,5.8,-,N/A,,Clear,330,2013-01-09 19:56:00
10:56 AM,80.1,75.0,85,29.99,10.0,North,9.2,-,N/A,,Mostly Cloudy,350,2013-01-09 20:56:00
11:03 AM,80.6,73.4,79,29.97,10.0,NNW,8.1,-,N/A,,Overcast,330,2013-01-09 21:03:00
11:41 AM,78.8,71.6,78,29.96,10.0,North,8.1,-,N/A,,Overcast,350,2013-01-09 21:41:00
11:56 AM,79.0,73.9,84,29.96,10.0,NNW,6.9,-,N/A,,Overcast,340,2013-01-09 21:56:00
12:10 PM,78.8,69.8,74,29.94,10.0,NNW,6.9,-,N/A,,Overcast,340,2013-01-09 22:10:00
12:24 PM,78.8,73.4,83,29.94,10.0,NNW,5.8,-,N/A,,Overcast,340,2013-01-09 22:24:00
12:56 PM,79.0,70.0,74,29.93,10.0,NNW,9.2,-,N/A,,Overcast,340,2013-01-09 22:56:00
1:56 PM,78.1,72.0,81,29.92,10.0,North,4.6,-,N/A,,Overcast,350,2013-01-09 23:56:00
2:56 PM,79.0,73.9,84,29.91,10.0,NNW,8.1,-,N/A,,Overcast,340,2013-01-10 00:56:00
3:56 PM,79.0,71.1,77,29.91,10.0,NNW,8.1,-,0.00,,Partly Cloudy,330,2013-01-10 01:56:00
4:56 PM,80.1,73.0,79,29.91,10.0,NNW,6.9,-,N/A,,Clear,340,2013-01-10 02:56:00
5:56 PM,77.0,72.0,84,29.93,10.0,WNW,3.5,-,N/A,,Clear,300,2013-01-10 03:56:00
6:56 PM,75.0,68.0,79,29.94,10.0,Calm,Calm,-,N/A,,Clear,0,2013-01-10 04:56:00
7:56 PM,73.0,68.0,84,29.96,10.0,SE,5.8,-,N/A,,Partly Cloudy,130,2013-01-10 05:56:00
8:56 PM,73.0,70.0,90,29.98,10.0,SE,3.5,-,N/A,,Clear,130,2013-01-10 06:56:00
9:56 PM,70.0,70.0,100,29.99,10.0,ESE,4.6,-,N/A,,Partly Cloudy,110,2013-01-10 07:56:00
10:56 PM,71.1,64.9,81,29.98,10.0,SE,3.5,-,N/A,,Clear,140,2013-01-10 08:56:00
11:56 PM,69.1,68.0,96,29.97,10.0,ENE,4.6,-,N/A,,Clear,70,2013-01-10 09:56:00